Location: Unspecified
(51.0950°N, 12.9690°E)
Time: 22:21:32
(UTC+00:00)

USA 215 - Pass Details

Date: 28 October 2021
Orbit: 1099 x 1109 km, 123.0° (Epoch: 20 November)

Event Time Altitude Azimuth Distance (km) Brightness Sun altitude
Exits shadow 16:10:54 - 60° (ENE) 3,545 5.3 -4.1°
Reaches altitude 10° 16:12:31 10° 65° (ENE) 2,965 4.9 -4.3°
Maximum altitude 16:18:41 43° 135° (SE) 1,515 3.8 -5.2°
Drops below altitude 10° 16:24:50 10° 205° (SSW) 2,958 6.1 -6.2°
Sets 16:27:28 0° 213° (SSW) 3,914 6.9 -6.6°
